Flag for Argentina

Past Weather in Tucumán, Tucumán, Argentina — Yesterday and Last 2 Weeks

Now
63 °F

Fog.


Feels Like: 63 °F
Forecast: N/A
Wind: 5 mph from South

Location: Tucuman Aerodrome
Current Time: Oct 20, 2020 at 8:31:23 pm
Latest Report: Oct 20, 2020 at 8:00 pm
Visibility: 3 mi
Pressure30.07 "Hg
Humidity: 94%
Dew Point: 61 °F
Location of TucumánLocation

Past Weather in Tucumán — Graph

°F

Tucumán Temperature Yesterday

Maximum temperature yesterday: 108 °F (at 4:00 pm)
Minimum temperature yesterday: 79 °F (at 5:00 am)
Average temperature yesterday: 93 °F

High & Low Weather Summary for the Past Weeks

 TemperatureHumidityPressure
High108 °F (Oct 19, 4:00 pm)94% (Oct 20, 1:00 pm)30.18 "Hg (Oct 20, 1:00 pm)
Low48 °F (Oct 6, 5:00 am)16% (Oct 10, 5:00 pm)29.50 "Hg (Oct 18, 5:00 pm)
Average76 °F46%29.91 "Hg
* Reported Oct 5 7:00 pm — Oct 20 7:00 pm, Tucumán. Weather by CustomWeather, © 2020

Note: Actual official high and low records may vary slightly from our data, if they occured in-between our weather recording intervals... More about our weather records

Tucumán Weather History for the Previous 24 Hours

Scroll right to see more
 ConditionsComfort  
Time TempWeatherWind HumidityBarometerVisibility
7:00 pm
Tue, Oct 20
63 °FFog.8 mph94%30.04 "Hg3 mi
6:00 pm63 °FDrizzle. Fog.8 mph94%30.04 "Hg2 mi
5:00 pm63 °FDrizzle. Fog.7 mph94%30.04 "Hg3 mi
4:00 pm63 °FDrizzle. Fog.9 mph94%30.04 "Hg1 mi
3:00 pm63 °FDrizzle. Fog.7 mph94%30.07 "Hg1 mi
2:00 pm63 °FDrizzle. Fog.8 mph94%30.07 "Hg1 mi
1:00 pm64 °FDrizzle. Fog.9 mph94%30.09 "Hg2 mi
12:00 pm66 °FLight rain. Fog.12 mph83%30.09 "Hg2 mi
11:00 am68 °FFog.6 mph78%30.09 "Hg3 mi
10:00 am68 °FFog.5 mph78%30.07 "Hg3 mi
9:00 am68 °FFog.7 mph78%30.07 "Hg3 mi
8:00 am68 °FFog.8 mph88%30.01 "Hg3 mi
7:00 am68 °FPartly sunny.2 mph83%29.98 "Hg4 mi
6:00 am70 °FPassing clouds.2 mph78%29.95 "Hg4 mi
5:00 am70 °FPassing clouds.6 mph78%29.92 "HgN/A
4:00 am70 °FPassing clouds.6 mph83%29.89 "HgN/A
3:00 am72 °FPassing clouds.10 mph78%29.89 "HgN/A
2:00 am73 °FRain. Passing clouds.9 mph78%29.89 "Hg4 mi
1:00 am73 °FThunderstorms. Passing clouds.20 mph83%29.86 "HgN/A
12:00 am79 °FThunderstorms. Passing clouds.21 mph70%29.80 "Hg2 mi
11:25 pm
Mon, Oct 19
90 °FThunderstorms. Partly cloudy.21 mph38%29.71 "Hg2 mi
11:00 pm90 °FThunderstorms. Partly cloudy.9 mph38%29.71 "Hg4 mi
10:00 pm91 °FPartly cloudy.5 mph38%29.68 "Hg4 mi
9:00 pm91 °FPassing clouds.2 mph41%29.62 "Hg4 mi
8:00 pm93 °FPassing clouds.7 mph34%29.62 "Hg4 mi
Weather by CustomWeather, © 2020

See weather overview